When you browse on this site, cookies collect data to enhance your experience and personalize the content and advertising you see.
Visit our Privacy Policy to learn more. By continuing to use the site, you agree to this use of cookies and data.
  • In Hungary
  • List of Countries
  • For 7 days
  • Water Temperature
  • Weather Map
  • News
  • Weather Widgets
  • user-avatar
    Login

    Hourly Weather Mityushino

    Today, 22 August, Thursday

    Time Temperature Precipitation Wind Pressure Humidity
    00:00 +20°C° 0 mm 3 mps 744 mmHg 92%
    01:00 +19°C° 0 mm 3 mps 744 mmHg 92%
    02:00 +19°C° 0 mm 3 mps 744 mmHg 92%
    03:00 +18°C° 0 mm 3 mps 744 mmHg 93%
    04:00 +18°C° 0 mm 2 mps 744 mmHg 95%
    05:00 +18°C° 0 mm 2 mps 744 mmHg 96%
    06:00 +18°C° 0 mm 3 mps 745 mmHg 94%
    07:00 +18°C° 0 mm 3 mps 745 mmHg 92%
    08:00 +18°C° 0 mm 4 mps 746 mmHg 90%
    09:00 +19°C° 0 mm 4 mps 746 mmHg 86%
    10:00 +19°C° 0 mm 4 mps 746 mmHg 81%
    11:00 +19°C° 0 mm 5 mps 746 mmHg 77%
    12:00 +19°C° 0 mm 4 mps 747 mmHg 74%
    13:00 +20°C° 0 mm 4 mps 747 mmHg 71%
    14:00 +21°C° 0 mm 4 mps 747 mmHg 67%
    15:00 +20°C° 0 mm 3 mps 747 mmHg 68%
    16:00 +20°C° 0 mm 3 mps 748 mmHg 70%
    17:00 +20°C° 0 mm 3 mps 748 mmHg 71%
    18:00 +19°C° 0 mm 2 mps 748 mmHg 76%
    19:00 +17°C° 0 mm 2 mps 748 mmHg 82%
    20:00 +15°C° 0 mm 2 mps 749 mmHg 88%
    21:00 +15°C° 0 mm 2 mps 749 mmHg 89%
    22:00 +14°C° 0 mm 2 mps 749 mmHg 90%
    23:00 +13°C° 0 mm 2 mps 749 mmHg 90%

    Tomorrow, 23 August, Friday

    Time Temperature Precipitation Wind Pressure Humidity
    00:00 +13°C° 0 mm 2 mps 750 mmHg 91%
    01:00 +12°C° 0 mm 1 mps 750 mmHg 91%
    02:00 +12°C° 0 mm 1 mps 750 mmHg 92%
    03:00 +12°C° 0 mm 1 mps 750 mmHg 92%
    04:00 +12°C° 0 mm 1 mps 750 mmHg 92%
    05:00 +11°C° 0 mm 1 mps 750 mmHg 93%
    06:00 +13°C° 0 mm 1 mps 750 mmHg 85%
    07:00 +15°C° 0 mm 1 mps 750 mmHg 78%
    08:00 +18°C° 0 mm 1 mps 751 mmHg 71%
    09:00 +20°C° 0 mm 1 mps 751 mmHg 66%
    10:00 +21°C° 0 mm 1 mps 751 mmHg 60%
    11:00 +23°C° 0 mm 1 mps 751 mmHg 55%
    12:00 +23°C° 0 mm 1 mps 751 mmHg 53%
    13:00 +23°C° 0 mm 1 mps 750 mmHg 51%
    14:00 +24°C° 0 mm 1 mps 750 mmHg 50%
    15:00 +23°C° 0 mm 1 mps 750 mmHg 55%
    16:00 +23°C° 0 mm 1 mps 750 mmHg 60%
    17:00 +22°C° 0 mm 1 mps 750 mmHg 65%
    18:00 +20°C° 0 mm 1 mps 750 mmHg 72%
    19:00 +18°C° 0 mm 1 mps 750 mmHg 78%
    20:00 +14°C° 0 mm 0 mps 750 mmHg 84%
    21:00 +13°C° 0 mm 0 mps 750 mmHg 85%
    22:00 +13°C° 0 mm 0 mps 750 mmHg 87%
    23:00 +12°C° 0 mm 0 mps 750 mmHg 88%

    Day after tomorrow, 24 August, Saturday

    Time Temperature Precipitation Wind Pressure Humidity
    00:00 +12°C° 0 mm 0 mps 750 mmHg 89%
    01:00 +12°C° 0 mm 0 mps 750 mmHg 90%
    02:00 +12°C° 0 mm 0 mps 750 mmHg 91%
    03:00 +12°C° 0 mm 0 mps 750 mmHg 91%
    04:00 +11°C° 0 mm 0 mps 750 mmHg 91%
    05:00 +12°C° 0 mm 1 mps 750 mmHg 92%
    06:00 +14°C° 0 mm 1 mps 750 mmHg 85%
    07:00 +16°C° 0 mm 1 mps 750 mmHg 78%
    08:00 +19°C° 0 mm 1 mps 750 mmHg 72%
    09:00 +21°C° 0 mm 1 mps 750 mmHg 66%
    10:00 +21°C° 0 mm 2 mps 749 mmHg 61%
    11:00 +23°C° 0 mm 2 mps 749 mmHg 56%
    12:00 +23°C° 0 mm 2 mps 749 mmHg 55%
    13:00 +24°C° 0 mm 2 mps 749 mmHg 54%
    14:00 +24°C° 0 mm 2 mps 749 mmHg 53%
    15:00 +23°C° 0 mm 2 mps 748 mmHg 58%
    16:00 +23°C° 0 mm 2 mps 748 mmHg 63%
    17:00 +21°C° 0 mm 2 mps 747 mmHg 68%
    18:00 +19°C° 0 mm 2 mps 747 mmHg 74%
    19:00 +17°C° 0 mm 2 mps 747 mmHg 81%
    20:00 +16°C° 0 mm 2 mps 747 mmHg 87%
    21:00 +15°C° 0 mm 2 mps 747 mmHg 89%
    22:00 +14°C° 0 mm 2 mps 747 mmHg 91%
    23:00 +14°C° 0 mm 2 mps 747 mmHg 92%

    25 August, Sunday

    Time Temperature Precipitation Wind Pressure Humidity
    00:00 +14°C° 0 mm 2 mps 747 mmHg 93%
    01:00 +13°C° 0 mm 2 mps 747 mmHg 94%
    02:00 +13°C° 0 mm 2 mps 746 mmHg 95%
    03:00 +13°C° 0 mm 2 mps 746 mmHg 95%
    04:00 +13°C° 0 mm 2 mps 746 mmHg 96%
    05:00 +12°C° 0 mm 2 mps 746 mmHg 96%
    06:00 +14°C° 0 mm 2 mps 746 mmHg 90%
    07:00 +16°C° 0 mm 2 mps 746 mmHg 85%
    08:00 +17°C° 0 mm 2 mps 746 mmHg 80%
    09:00 +18°C° 0 mm 2 mps 747 mmHg 80%
    10:00 +18°C° 0 mm 2 mps 747 mmHg 80%
    11:00 +18°C° 0 mm 2 mps 747 mmHg 81%
    12:00 +19°C° 0.1 mm 3 mps 747 mmHg 74%
    13:00 +20°C° 0.1 mm 3 mps 747 mmHg 68%
    14:00 +22°C° 0.1 mm 3 mps 747 mmHg 62%
    15:00 +21°C° 0 mm 3 mps 747 mmHg 64%
    16:00 +21°C° 0 mm 2 mps 747 mmHg 66%
    17:00 +20°C° 0 mm 2 mps 747 mmHg 68%
    18:00 +18°C° 0 mm 2 mps 748 mmHg 73%
    19:00 +16°C° 0 mm 2 mps 748 mmHg 78%
    20:00 +14°C° 0 mm 2 mps 748 mmHg 84%
    21:00 +13°C° 0 mm 2 mps 749 mmHg 87%
    22:00 +12°C° 0 mm 2 mps 749 mmHg 91%
    23:00 +10°C° 0 mm 2 mps 750 mmHg 95%

    26 August, Monday

    Time Temperature Precipitation Wind Pressure Humidity
    00:00 +10°C° 0 mm 2 mps 750 mmHg 95%
    01:00 +10°C° 0 mm 1 mps 750 mmHg 95%
    02:00 +10°C° 0 mm 1 mps 750 mmHg 96%
    03:00 +10°C° 0 mm 1 mps 750 mmHg 96%
    04:00 +9°C° 0 mm 1 mps 750 mmHg 96%
    05:00 +9°C° 0 mm 1 mps 751 mmHg 96%
    06:00 +11°C° 0 mm 1 mps 751 mmHg 90%
    07:00 +13°C° 0 mm 1 mps 751 mmHg 83%
    08:00 +15°C° 0 mm 1 mps 752 mmHg 76%
    09:00 +16°C° 0 mm 1 mps 752 mmHg 69%
    10:00 +19°C° 0 mm 1 mps 752 mmHg 62%
    11:00 +21°C° 0 mm 1 mps 752 mmHg 56%
    12:00 +21°C° 0 mm 1 mps 751 mmHg 53%
    13:00 +22°C° 0 mm 1 mps 751 mmHg 50%
    14:00 +20°C° 0 mm 0 mps 751 mmHg 48%
    15:00 +20°C° 0 mm 0 mps 751 mmHg 52%
    16:00 +19°C° 0 mm 0 mps 751 mmHg 57%
    17:00 +19°C° 0 mm 0 mps 750 mmHg 61%
    18:00 +17°C° 0 mm 0 mps 750 mmHg 68%
    19:00 +14°C° 0 mm 0 mps 750 mmHg 75%
    20:00 +12°C° 0 mm 0 mps 750 mmHg 82%
    21:00 +13°C° 0 mm 1 mps 750 mmHg 83%
    22:00 +12°C° 0 mm 1 mps 751 mmHg 85%
    23:00 +12°C° 0 mm 1 mps 751 mmHg 86%

    27 August, Tuesday

    Time Temperature Precipitation Wind Pressure Humidity
    00:00 +11°C° 0 mm 1 mps 751 mmHg 87%
    01:00 +11°C° 0 mm 1 mps 751 mmHg 88%
    02:00 +11°C° 0 mm 1 mps 751 mmHg 89%
    03:00 +11°C° 0 mm 1 mps 751 mmHg 90%
    04:00 +10°C° 0 mm 1 mps 751 mmHg 90%
    05:00 +10°C° 0 mm 1 mps 751 mmHg 91%
    06:00 +12°C° 0 mm 1 mps 751 mmHg 84%
    07:00 +14°C° 0 mm 1 mps 751 mmHg 78%
    08:00 +16°C° 0 mm 1 mps 751 mmHg 71%
    09:00 +19°C° 0 mm 1 mps 751 mmHg 66%
    10:00 +20°C° 0 mm 1 mps 751 mmHg 60%
    11:00 +20°C° 0 mm 2 mps 751 mmHg 55%
    12:00 +21°C° 0 mm 2 mps 750 mmHg 53%
    13:00 +21°C° 0 mm 2 mps 750 mmHg 52%
    14:00 +23°C° 0 mm 2 mps 750 mmHg 51%
    15:00 +21°C° 0 mm 2 mps 750 mmHg 56%
    16:00 +21°C° 0 mm 2 mps 749 mmHg 61%
    17:00 +21°C° 0 mm 1 mps 749 mmHg 66%
    18:00 +19°C° 0 mm 1 mps 749 mmHg 71%
    19:00 +18°C° 0 mm 1 mps 749 mmHg 77%
    20:00 +15°C° 0 mm 1 mps 749 mmHg 82%
    21:00 +14°C° 0 mm 1 mps 749 mmHg 84%
    22:00 +14°C° 0 mm 1 mps 749 mmHg 86%
    23:00 +13°C° 0 mm 1 mps 749 mmHg 89%
    Show more